AZU2699 SBPA-SBKP

Flight info

Callsign AZU2699
Flight time 1h 19m
Altitude 37000
Route PENSO UZ132 EDRAT
Aircraft A20N/M-SDE2E3FGHIRWXY/LB1

Departure

Time 2026-05-07 00:06
Airport Porto Alegre-Salgado Filho International Airport (SBPA)

Arrival

Time 2026-05-07 01:26
Airport Viracopos International Airport (SBKP)
Time Latitude Longitude Altitude Speed Heading
2026-05-06 23:33 -29.99126 -51.17489 18 ft 0 kts 359°
2026-05-06 23:55 -29.99130 -51.17489 16 ft 3 kts 359°
2026-05-06 23:55 -29.99154 -51.17490 16 ft 3 kts 360°
2026-05-06 23:55 -29.99175 -51.17494 18 ft 4 kts 63°
2026-05-06 23:56 -29.99175 -51.17520 20 ft 4 kts 103°
2026-05-06 23:56 -29.99172 -51.17539 18 ft 0 kts 91°
2026-05-06 23:58 -29.99172 -51.17527 19 ft 3 kts 92°
2026-05-06 23:58 -29.99173 -51.17487 18 ft 7 kts 90°
2026-05-06 23:58 -29.99174 -51.17415 16 ft 10 kts 100°
2026-05-06 23:58 -29.99238 -51.17394 16 ft 9 kts 182°
2026-05-06 23:59 -29.99265 -51.17436 16 ft 8 kts 264°
2026-05-06 23:59 -29.99264 -51.17507 16 ft 10 kts 271°
2026-05-06 23:59 -29.99263 -51.17589 16 ft 11 kts 270°
2026-05-06 23:59 -29.99264 -51.17684 16 ft 13 kts 263°
2026-05-07 00:00 -29.99285 -51.17786 16 ft 14 kts 271°
2026-05-07 00:00 -29.99280 -51.17891 16 ft 9 kts 274°
2026-05-07 00:00 -29.99278 -51.17958 16 ft 8 kts 265°
2026-05-07 00:00 -29.99285 -51.18000 16 ft 8 kts 256°
2026-05-07 00:01 -29.99308 -51.18070 18 ft 6 kts 248°
2026-05-07 00:01 -29.99319 -51.18104 16 ft 3 kts 249°
2026-05-07 00:01 -29.99326 -51.18126 16 ft 2 kts 249°
2026-05-07 00:01 -29.99328 -51.18131 16 ft 0 kts 249°
2026-05-07 00:04 -29.99335 -51.18153 16 ft 5 kts 249°
2026-05-07 00:04 -29.99355 -51.18211 18 ft 9 kts 244°
2026-05-07 00:04 -29.99408 -51.18256 17 ft 9 kts 210°
2026-05-07 00:05 -29.99440 -51.18266 19 ft 3 kts 117°
2026-05-07 00:05 -29.99442 -51.18167 18 ft 38 kts 92°
2026-05-07 00:05 -29.99454 -51.17597 18 ft 101 kts 91°
2026-05-07 00:05 -29.99473 -51.16591 17 ft 147 kts 91°
2026-05-07 00:06 -29.99500 -51.15330 377 ft 159 kts 91°
2026-05-07 00:06 -29.99523 -51.14025 789 ft 170 kts 90°
2026-05-07 00:06 -29.99544 -51.12597 1005 ft 189 kts 89°
2026-05-07 00:06 -29.99570 -51.10991 1185 ft 212 kts 89°
2026-05-07 00:07 -29.99600 -51.09192 1383 ft 237 kts 89°
2026-05-07 00:07 -29.99633 -51.07195 1706 ft 260 kts 88°
2026-05-07 00:07 -29.99315 -51.05135 2260 ft 265 kts 59°
2026-05-07 00:07 -29.98053 -51.03638 2976 ft 262 kts 22°
2026-05-07 00:08 -29.96310 -51.03110 3739 ft 260 kts
2026-05-07 00:08 -29.94547 -51.02678 4553 ft 266 kts 17°
2026-05-07 00:08 -29.92856 -51.01750 5357 ft 272 kts 25°
2026-05-07 00:08 -29.91224 -51.00616 6186 ft 276 kts 28°
2026-05-07 00:09 -29.89601 -50.99399 6987 ft 279 kts 29°
2026-05-07 00:09 -29.87972 -50.98164 7777 ft 282 kts 29°
2026-05-07 00:09 -29.86324 -50.96932 8583 ft 283 kts 28°
2026-05-07 00:09 -29.84654 -50.95707 9382 ft 286 kts 28°
2026-05-07 00:10 -29.82962 -50.94480 10155 ft 288 kts 28°
2026-05-07 00:10 -29.81197 -50.93252 10483 ft 306 kts 24°
2026-05-07 00:10 -29.79159 -50.92330 10668 ft 323 kts 11°
2026-05-07 00:10 -29.76920 -50.91944 11146 ft 328 kts 359°
2026-05-07 00:11 -29.74622 -50.91977 11746 ft 332 kts 356°
2026-05-07 00:11 -29.72295 -50.92032 12331 ft 336 kts 356°
2026-05-07 00:11 -29.69944 -50.92083 12926 ft 341 kts 356°
2026-05-07 00:11 -29.67550 -50.92131 13518 ft 345 kts 355°
2026-05-07 00:12 -29.65127 -50.92180 14046 ft 350 kts 355°
2026-05-07 00:12 -29.62715 -50.92233 14535 ft 353 kts 355°
2026-05-07 00:12 -29.60241 -50.92285 14896 ft 356 kts 355°
2026-05-07 00:12 -29.57761 -50.92336 14989 ft 356 kts 355°
2026-05-07 00:13 -29.55276 -50.92386 15030 ft 357 kts 355°
2026-05-07 00:13 -29.52795 -50.92439 15028 ft 356 kts 355°
2026-05-07 00:13 -29.50310 -50.92493 15025 ft 356 kts 355°
2026-05-07 00:13 -29.47833 -50.92547 15023 ft 356 kts 355°
2026-05-07 00:14 -29.45379 -50.92598 15046 ft 356 kts 355°
2026-05-07 00:14 -29.42900 -50.92650 15048 ft 356 kts 355°
2026-05-07 00:14 -29.40426 -50.92701 15053 ft 356 kts 355°
2026-05-07 00:14 -29.37942 -50.92752 15077 ft 356 kts 355°
2026-05-07 00:15 -29.35466 -50.92805 15087 ft 356 kts 355°
2026-05-07 00:15 -29.33793 -50.92842 15084 ft 356 kts 355°
2026-05-07 00:15 -29.31354 -50.92897 15091 ft 356 kts 355°
2026-05-07 00:15 -29.28045 -50.92974 15102 ft 355 kts 355°
2026-05-07 00:16 -29.26407 -50.93012 15101 ft 355 kts 355°
2026-05-07 00:16 -29.23936 -50.93066 15099 ft 356 kts 355°
2026-05-07 00:16 -29.21487 -50.93120 15099 ft 356 kts 354°
2026-05-07 00:16 -29.19032 -50.93415 15258 ft 357 kts 348°
2026-05-07 00:17 -29.16569 -50.93812 15822 ft 358 kts 348°
2026-05-07 00:17 -29.14085 -50.94204 16362 ft 361 kts 348°
2026-05-07 00:17 -29.11618 -50.94590 16895 ft 364 kts 348°
2026-05-07 00:17 -29.09096 -50.94988 17417 ft 366 kts 348°
2026-05-07 00:18 -29.06566 -50.95387 17936 ft 369 kts 348°
2026-05-07 00:18 -29.04011 -50.95792 18444 ft 372 kts 348°
2026-05-07 00:18 -29.01432 -50.96203 18896 ft 375 kts 348°
2026-05-07 00:18 -28.98840 -50.96616 19336 ft 378 kts 347°
2026-05-07 00:19 -28.96226 -50.97032 19774 ft 381 kts 348°
2026-05-07 00:19 -28.93584 -50.97451 20223 ft 384 kts 348°
2026-05-07 00:19 -28.90924 -50.97870 20670 ft 387 kts 347°
2026-05-07 00:19 -28.88279 -50.98288 21098 ft 390 kts 347°
2026-05-07 00:20 -28.85571 -50.98716 21546 ft 393 kts 347°
2026-05-07 00:20 -28.82842 -50.99143 21987 ft 397 kts 348°
2026-05-07 00:20 -28.80052 -50.99286 22430 ft 406 kts 359°
2026-05-07 00:20 -28.77229 -50.98823 22856 ft 414 kts
2026-05-07 00:21 -28.74398 -50.98164 23252 ft 416 kts
2026-05-07 00:21 -28.71543 -50.97503 23635 ft 419 kts
2026-05-07 00:21 -28.68711 -50.96850 23977 ft 422 kts
2026-05-07 00:21 -28.65820 -50.96186 24309 ft 425 kts
2026-05-07 00:22 -28.62898 -50.95518 24644 ft 429 kts
2026-05-07 00:22 -28.59970 -50.94849 24986 ft 432 kts
2026-05-07 00:22 -28.57009 -50.94171 25339 ft 435 kts
2026-05-07 00:22 -28.54028 -50.93489 25670 ft 438 kts
2026-05-07 00:23 -28.51033 -50.92802 25999 ft 440 kts
2026-05-07 00:23 -28.48012 -50.92111 26339 ft 443 kts
2026-05-07 00:23 -28.44977 -50.91417 26667 ft 446 kts
2026-05-07 00:23 -28.41929 -50.90722 26989 ft 449 kts
2026-05-07 00:24 -28.38847 -50.90017 27296 ft 452 kts
2026-05-07 00:24 -28.35751 -50.89308 27618 ft 455 kts
2026-05-07 00:24 -28.32636 -50.88594 27933 ft 458 kts
2026-05-07 00:24 -28.29500 -50.87874 28252 ft 461 kts
2026-05-07 00:25 -28.26380 -50.87159 28541 ft 464 kts
2026-05-07 00:25 -28.23195 -50.86433 28840 ft 468 kts
2026-05-07 00:25 -28.20001 -50.85706 29154 ft 471 kts
2026-05-07 00:25 -28.16773 -50.84970 29474 ft 474 kts
2026-05-07 00:26 -28.13531 -50.84231 29777 ft 477 kts
2026-05-07 00:26 -28.10261 -50.83487 30090 ft 480 kts
2026-05-07 00:26 -28.06982 -50.82729 30408 ft 482 kts
2026-05-07 00:26 -28.03752 -50.81570 30762 ft 491 kts 17°
2026-05-07 00:27 -28.00703 -50.79872 31085 ft 496 kts 22°
2026-05-07 00:27 -27.97655 -50.78035 31428 ft 496 kts 22°
2026-05-07 00:27 -27.94605 -50.76199 31796 ft 497 kts 22°
2026-05-07 00:27 -27.91553 -50.74367 32155 ft 497 kts 22°
2026-05-07 00:28 -27.88499 -50.72537 32519 ft 497 kts 22°
2026-05-07 00:28 -27.85439 -50.70708 32893 ft 496 kts 22°
2026-05-07 00:28 -27.82378 -50.68881 33255 ft 497 kts 22°
2026-05-07 00:28 -27.79312 -50.67054 33623 ft 497 kts 22°
2026-05-07 00:29 -27.76290 -50.65253 33986 ft 497 kts 22°
2026-05-07 00:29 -27.73225 -50.63425 34300 ft 498 kts 22°
2026-05-07 00:30 -27.64053 -50.57954 35185 ft 497 kts 23°
2026-05-07 00:30 -27.61018 -50.56147 35485 ft 497 kts 23°
2026-05-07 00:30 -27.57954 -50.54328 35783 ft 496 kts 22°
2026-05-07 00:30 -27.54899 -50.52515 36075 ft 496 kts 23°
2026-05-07 00:31 -27.51831 -50.50700 36344 ft 496 kts 22°
2026-05-07 00:31 -27.48776 -50.48896 36587 ft 495 kts 22°
2026-05-07 00:31 -27.45759 -50.47112 36841 ft 495 kts 23°
2026-05-07 00:31 -27.42710 -50.45302 37075 ft 495 kts 23°
2026-05-07 00:32 -27.36583 -50.41634 37152 ft 504 kts 23°
2026-05-07 00:32 -27.30368 -50.37889 37163 ft 508 kts 24°
2026-05-07 00:33 -27.24128 -50.34138 37159 ft 508 kts 23°
2026-05-07 00:33 -27.17916 -50.30431 37156 ft 508 kts 23°
2026-05-07 00:34 -27.11651 -50.26738 37144 ft 508 kts 23°
2026-05-07 00:34 -27.05373 -50.23064 37139 ft 509 kts 23°
2026-05-07 00:35 -26.99091 -50.19367 37147 ft 509 kts 23°
2026-05-07 00:35 -26.92845 -50.15690 37151 ft 509 kts 23°
2026-05-07 00:36 -26.86563 -50.11996 37153 ft 510 kts 23°
2026-05-07 00:36 -26.80270 -50.08310 37147 ft 510 kts 23°
2026-05-07 00:37 -26.73990 -50.04629 37152 ft 509 kts 23°
2026-05-07 00:37 -26.67705 -50.00948 37155 ft 509 kts 23°
2026-05-07 00:38 -26.61465 -49.97301 37154 ft 509 kts 23°
2026-05-07 00:38 -26.55184 -49.93638 37150 ft 509 kts 24°
2026-05-07 00:39 -26.48895 -49.89975 37158 ft 510 kts 24°
2026-05-07 00:39 -26.42607 -49.86309 37167 ft 510 kts 24°
2026-05-07 00:40 -26.36301 -49.82635 37167 ft 510 kts 24°
2026-05-07 00:40 -26.29998 -49.78972 37178 ft 510 kts 24°
2026-05-07 00:41 -26.23692 -49.75318 37170 ft 510 kts 24°
2026-05-07 00:41 -26.17429 -49.71693 37170 ft 510 kts 24°
2026-05-07 00:42 -26.11123 -49.68043 37169 ft 510 kts 24°
2026-05-07 00:42 -26.04814 -49.64389 37175 ft 511 kts 24°
2026-05-07 00:43 -25.98498 -49.60735 37175 ft 511 kts 24°
2026-05-07 00:43 -25.92220 -49.57114 37173 ft 511 kts 24°
2026-05-07 00:44 -25.85906 -49.53477 37187 ft 511 kts 24°
2026-05-07 00:44 -25.79587 -49.49834 37190 ft 511 kts 24°
2026-05-07 00:45 -25.73270 -49.46194 37197 ft 512 kts 24°
2026-05-07 00:45 -25.66946 -49.42565 37207 ft 511 kts 24°
2026-05-07 00:46 -25.60624 -49.38943 37221 ft 511 kts 24°
2026-05-07 00:46 -25.54302 -49.35321 37240 ft 512 kts 24°
2026-05-07 00:47 -25.47981 -49.31698 37254 ft 512 kts 24°
2026-05-07 00:47 -25.41652 -49.28090 37258 ft 512 kts 24°
2026-05-07 00:48 -25.35321 -49.24487 37246 ft 512 kts 25°
2026-05-07 00:48 -25.28994 -49.20881 37174 ft 512 kts 25°
2026-05-07 00:49 -25.22669 -49.17270 37176 ft 512 kts 25°
2026-05-07 00:49 -25.16341 -49.13666 37172 ft 512 kts 24°
2026-05-07 00:50 -25.10053 -49.10098 37164 ft 512 kts 25°
2026-05-07 00:50 -25.03725 -49.06500 37161 ft 512 kts 25°
2026-05-07 00:51 -24.97394 -49.02894 37163 ft 512 kts 25°
2026-05-07 00:51 -24.91063 -48.99284 37165 ft 513 kts 25°
2026-05-07 00:52 -24.84725 -48.95685 37167 ft 513 kts 25°
2026-05-07 00:52 -24.78380 -48.92099 37160 ft 513 kts 25°
2026-05-07 00:53 -24.72028 -48.88523 37168 ft 513 kts 25°
2026-05-07 00:53 -24.65672 -48.84957 37170 ft 513 kts 25°
2026-05-07 00:54 -24.59321 -48.81387 37170 ft 513 kts 25°
2026-05-07 00:54 -24.52975 -48.77817 37168 ft 512 kts 25°
2026-05-07 00:55 -24.46850 -48.73791 37166 ft 513 kts 31°
2026-05-07 00:55 -24.40798 -48.69615 37168 ft 514 kts 31°
2026-05-07 00:56 -24.34740 -48.65456 37171 ft 514 kts 31°
2026-05-07 00:56 -24.28674 -48.61285 37173 ft 515 kts 31°
2026-05-07 00:57 -24.22650 -48.57145 37170 ft 515 kts 31°
2026-05-07 00:57 -24.16585 -48.52979 37168 ft 514 kts 31°
2026-05-07 00:58 -24.10520 -48.48834 37174 ft 514 kts 31°
2026-05-07 00:58 -24.04458 -48.44686 37101 ft 513 kts 31°
2026-05-07 00:59 -23.98462 -48.40580 36595 ft 505 kts 31°
2026-05-07 00:59 -23.95489 -48.38547 36341 ft 503 kts 31°
2026-05-07 00:59 -23.92530 -48.36524 36097 ft 501 kts 31°
2026-05-07 01:00 -23.89575 -48.34509 35698 ft 501 kts 31°
2026-05-07 01:00 -23.86597 -48.32483 35030 ft 504 kts 31°
2026-05-07 01:00 -23.83647 -48.30474 34739 ft 498 kts 32°
2026-05-07 01:00 -23.80752 -48.28424 34361 ft 494 kts 33°
2026-05-07 01:01 -23.77929 -48.26312 33953 ft 491 kts 35°
2026-05-07 01:01 -23.75150 -48.24166 33502 ft 487 kts 36°
2026-05-07 01:01 -23.73293 -48.22717 33201 ft 485 kts 36°
2026-05-07 01:01 -23.69670 -48.19899 32610 ft 480 kts 35°
2026-05-07 01:02 -23.67865 -48.18511 32323 ft 478 kts 35°
2026-05-07 01:02 -23.65111 -48.16411 31898 ft 475 kts 34°
2026-05-07 01:02 -23.62404 -48.14366 31474 ft 472 kts 34°
2026-05-07 01:02 -23.59707 -48.12339 31057 ft 469 kts 34°
2026-05-07 01:03 -23.57030 -48.10327 30647 ft 466 kts 34°
2026-05-07 01:03 -23.54405 -48.08356 30267 ft 463 kts 34°
2026-05-07 01:03 -23.51755 -48.06368 29832 ft 460 kts 34°
2026-05-07 01:03 -23.49127 -48.04397 29424 ft 456 kts 34°
2026-05-07 01:04 -23.46527 -48.02442 29039 ft 452 kts 34°
2026-05-07 01:04 -23.43950 -48.00500 28653 ft 448 kts 34°
2026-05-07 01:04 -23.41397 -47.98576 28283 ft 444 kts 34°
2026-05-07 01:04 -23.38876 -47.96679 27936 ft 439 kts 34°
2026-05-07 01:05 -23.36373 -47.94801 27525 ft 434 kts 34°
2026-05-07 01:05 -23.33899 -47.92946 27013 ft 429 kts 34°
2026-05-07 01:05 -23.31454 -47.91115 26522 ft 423 kts 34°
2026-05-07 01:05 -23.29069 -47.89328 25903 ft 417 kts 34°
2026-05-07 01:06 -23.26699 -47.87554 25291 ft 410 kts 34°
2026-05-07 01:06 -23.24362 -47.85804 24698 ft 404 kts 34°
2026-05-07 01:06 -23.22080 -47.84026 23710 ft 407 kts 42°
2026-05-07 01:06 -23.20229 -47.81708 22665 ft 406 kts 60°
2026-05-07 01:07 -23.18874 -47.79035 21808 ft 400 kts 63°
2026-05-07 01:07 -23.17588 -47.76418 21575 ft 383 kts 63°
2026-05-07 01:07 -23.16419 -47.73893 21443 ft 364 kts 72°
2026-05-07 01:07 -23.15913 -47.71289 21315 ft 343 kts 90°
2026-05-07 01:08 -23.16132 -47.68791 21202 ft 324 kts 107°
2026-05-07 01:08 -23.16920 -47.66573 21078 ft 307 kts 122°
2026-05-07 01:08 -23.18135 -47.64724 20861 ft 298 kts 135°
2026-05-07 01:08 -23.19706 -47.63296 20621 ft 293 kts 149°
2026-05-07 01:09 -23.21535 -47.62350 20382 ft 291 kts 163°
2026-05-07 01:09 -23.23504 -47.61922 20115 ft 289 kts 177°
2026-05-07 01:09 -23.25515 -47.62018 19554 ft 294 kts 190°
2026-05-07 01:09 -23.27500 -47.62687 18936 ft 302 kts 204°
2026-05-07 01:10 -23.29294 -47.63905 18442 ft 306 kts 219°
2026-05-07 01:10 -23.30754 -47.65593 17930 ft 309 kts 234°
2026-05-07 01:10 -23.31896 -47.67566 17397 ft 308 kts 239°
2026-05-07 01:10 -23.32903 -47.69622 16846 ft 307 kts 242°
2026-05-07 01:11 -23.33842 -47.71708 16279 ft 306 kts 243°
2026-05-07 01:11 -23.34745 -47.73767 15765 ft 305 kts 243°
2026-05-07 01:11 -23.35462 -47.75932 15247 ft 303 kts 260°
2026-05-07 01:11 -23.35566 -47.78208 14747 ft 302 kts 276°
2026-05-07 01:12 -23.35150 -47.80438 14247 ft 300 kts 290°
2026-05-07 01:12 -23.34275 -47.82477 13744 ft 296 kts 304°
2026-05-07 01:12 -23.32998 -47.84194 13222 ft 290 kts 319°
2026-05-07 01:12 -23.31407 -47.85499 12734 ft 284 kts 333°
2026-05-07 01:13 -23.29614 -47.86331 12250 ft 278 kts 346°
2026-05-07 01:13 -23.27716 -47.86665 11927 ft 275 kts 360°
2026-05-07 01:13 -23.25825 -47.86520 11688 ft 271 kts 13°
2026-05-07 01:13 -23.24033 -47.85915 11447 ft 268 kts 25°
2026-05-07 01:14 -23.22434 -47.84901 11212 ft 266 kts 38°
2026-05-07 01:14 -23.21090 -47.83528 10971 ft 265 kts 50°
2026-05-07 01:14 -23.20038 -47.81888 10743 ft 265 kts 58°
2026-05-07 01:14 -23.19144 -47.80136 10501 ft 264 kts 62°
2026-05-07 01:15 -23.18321 -47.78348 10264 ft 265 kts 63°
2026-05-07 01:15 -23.17533 -47.76572 10134 ft 265 kts 63°
2026-05-07 01:15 -23.16732 -47.74766 10122 ft 265 kts 62°
2026-05-07 01:15 -23.15873 -47.72906 10126 ft 284 kts 61°
2026-05-07 01:16 -23.14949 -47.70985 10130 ft 288 kts 60°
2026-05-07 01:16 -23.14006 -47.69059 10128 ft 289 kts 60°
2026-05-07 01:16 -23.13058 -47.67137 10128 ft 289 kts 60°
2026-05-07 01:16 -23.12106 -47.65210 10128 ft 289 kts 60°
2026-05-07 01:17 -23.11158 -47.63287 10124 ft 289 kts 60°
2026-05-07 01:17 -23.10210 -47.61359 10114 ft 289 kts 60°
2026-05-07 01:17 -23.09257 -47.59420 9743 ft 291 kts 60°
2026-05-07 01:17 -23.08309 -47.57485 9412 ft 289 kts 60°
2026-05-07 01:18 -23.07365 -47.55563 9110 ft 286 kts 60°
2026-05-07 01:18 -23.06445 -47.53685 8797 ft 284 kts 61°
2026-05-07 01:18 -23.05518 -47.51790 8396 ft 284 kts 61°
2026-05-07 01:18 -23.04596 -47.49905 8031 ft 282 kts 61°
2026-05-07 01:19 -23.03677 -47.48034 7790 ft 279 kts 61°
2026-05-07 01:19 -23.02759 -47.46173 7599 ft 279 kts 61°
2026-05-07 01:19 -23.01845 -47.44322 7409 ft 278 kts 61°
2026-05-07 01:19 -23.00934 -47.42479 7214 ft 277 kts 61°
2026-05-07 01:20 -23.00025 -47.40640 7021 ft 274 kts 61°
2026-05-07 01:20 -22.99136 -47.38836 6828 ft 268 kts 61°
2026-05-07 01:20 -22.98268 -47.37070 6640 ft 263 kts 61°
2026-05-07 01:20 -22.97251 -47.35450 6463 ft 257 kts 46°
2026-05-07 01:21 -22.95886 -47.34207 6169 ft 256 kts 37°
2026-05-07 01:21 -22.94473 -47.33040 5887 ft 255 kts 37°
2026-05-07 01:21 -22.93070 -47.31878 5611 ft 250 kts 38°
2026-05-07 01:21 -22.91717 -47.30752 5279 ft 242 kts 38°
2026-05-07 01:22 -22.90615 -47.29429 4874 ft 237 kts 68°
2026-05-07 01:22 -22.90484 -47.27692 4474 ft 233 kts 108°
2026-05-07 01:22 -22.91366 -47.26317 4392 ft 216 kts 135°
2026-05-07 01:22 -22.92360 -47.25140 4383 ft 207 kts 128°
2026-05-07 01:23 -22.93224 -47.23945 4211 ft 196 kts 126°
2026-05-07 01:23 -22.94017 -47.22836 3978 ft 180 kts 126°
2026-05-07 01:23 -22.94747 -47.21815 3767 ft 163 kts 126°
2026-05-07 01:23 -22.95418 -47.20881 3568 ft 152 kts 126°
2026-05-07 01:24 -22.96058 -47.19987 3390 ft 148 kts 125°
2026-05-07 01:24 -22.96683 -47.19115 3200 ft 145 kts 125°
2026-05-07 01:24 -22.97300 -47.18251 3015 ft 144 kts 126°
2026-05-07 01:24 -22.97920 -47.17387 2857 ft 146 kts 127°
2026-05-07 01:25 -22.98538 -47.16512 2641 ft 146 kts 127°
2026-05-07 01:25 -22.99165 -47.15654 2424 ft 145 kts 127°
2026-05-07 01:25 -22.99778 -47.14792 2204 ft 145 kts 127°
2026-05-07 01:25 -23.00348 -47.13999 2154 ft 102 kts 128°
2026-05-07 01:26 -23.00603 -47.13645 2152 ft 31 kts 127°
2026-05-07 01:26 -23.00720 -47.13479 2151 ft 22 kts 129°
2026-05-07 01:26 -23.00815 -47.13344 2149 ft 22 kts 127°
2026-05-07 01:26 -23.00909 -47.13214 2149 ft 22 kts 128°
2026-05-07 01:27 -23.01006 -47.13079 2153 ft 23 kts 128°
2026-05-07 01:27 -23.01104 -47.12947 2155 ft 23 kts 135°
2026-05-07 01:27 -23.01240 -47.12847 2154 ft 24 kts 150°
2026-05-07 01:27 -23.01361 -47.12806 2156 ft 15 kts 198°
2026-05-07 01:28 -23.01362 -47.12898 2152 ft 15 kts 307°
2026-05-07 01:28 -23.01294 -47.12993 2153 ft 17 kts 307°
2026-05-07 01:28 -23.01220 -47.13097 2157 ft 18 kts 308°
2026-05-07 01:28 -23.01141 -47.13209 2151 ft 20 kts 307°
2026-05-07 01:29 -23.01053 -47.13330 2154 ft 21 kts 307°
2026-05-07 01:29 -23.00959 -47.13462 2151 ft 23 kts 308°
2026-05-07 01:29 -23.00857 -47.13605 2153 ft 25 kts 308°
2026-05-07 01:29 -23.00747 -47.13758 2155 ft 27 kts 308°
2026-05-07 01:30 -23.00628 -47.13920 2155 ft 28 kts 307°
2026-05-07 01:30 -23.00515 -47.14081 2156 ft 27 kts 307°
2026-05-07 01:30 -23.00396 -47.14249 2156 ft 29 kts 308°
2026-05-07 01:30 -23.00289 -47.14398 2154 ft 17 kts 307°
2026-05-07 01:31 -23.00217 -47.14495 2154 ft 14 kts 309°
2026-05-07 01:31 -23.00201 -47.14573 2155 ft 9 kts 234°
2026-05-07 01:31 -23.00252 -47.14619 2154 ft 10 kts 222°
2026-05-07 01:31 -23.00308 -47.14666 2157 ft 11 kts 216°
2026-05-07 01:32 -23.00370 -47.14716 2153 ft 11 kts 217°
2026-05-07 01:32 -23.00393 -47.14784 2153 ft 11 kts 292°
2026-05-07 01:32 -23.00355 -47.14841 2157 ft 7 kts 308°
2026-05-07 01:32 -23.00364 -47.14881 2149 ft 5 kts 220°
2026-05-07 01:33 -23.00376 -47.14891 2154 ft 2 kts 218°
2026-05-07 01:33 -23.00376 -47.14892 2154 ft 0 kts 218°